Estación de La Piedad

Ultimos registro cada 15 minutos 23
Estación Fecha / Hora Temperatura Humedad Lluvia Velocidad Dirección Radiación Presion
23 La Piedad 07-05-2026 05:30 2,3 95 0 0 235 0 1025,9
22 La Piedad 07-05-2026 05:15 2,3 95 0 0 235 0 1025,9
21 La Piedad 07-05-2026 05:00 3 95 0 0 235 0 1025,8
20 La Piedad 07-05-2026 04:45 3,6 96 0 0 235 0 1025,6
19 La Piedad 07-05-2026 04:30 3,8 95 0 0 235 0 1025,5
18 La Piedad 07-05-2026 04:15 3,8 95 0 0 235 0 1025,5
17 La Piedad 07-05-2026 04:00 4,7 96 0 0 235 0 1025,3
16 La Piedad 07-05-2026 03:45 4,9 96 0 0 235 0 1025,2
15 La Piedad 07-05-2026 03:30 4,4 95 0 0 235 0 1024,9
14 La Piedad 07-05-2026 03:15 4,4 95 0 0 235 0 1024,9
13 La Piedad 07-05-2026 03:00 5,1 96 0 0 235 0 1024,8
12 La Piedad 07-05-2026 02:45 4,7 94 0 0 235 0 1024,6
11 La Piedad 07-05-2026 02:30 5,4 94 0 0 235 0 1024,7
10 La Piedad 07-05-2026 02:15 5,4 94 0 0 235 0 1024,7
9 La Piedad 07-05-2026 02:00 6,9 95 0 0 235 0 1024,9
8 La Piedad 07-05-2026 01:45 7,2 95 0 0,9 235 0 1024,8
7 La Piedad 07-05-2026 01:30 6,7 95 0 0 235 0 1023,9
6 La Piedad 07-05-2026 01:15 6,7 95 0 0 235 0 1023,9
5 La Piedad 07-05-2026 01:00 6,5 93 0 0 235 0 1023,9
4 La Piedad 07-05-2026 00:45 7,2 92 0 0 235 0 1023,8
3 La Piedad 07-05-2026 00:30 9 94 0 0 235 0 1023,9
2 La Piedad 07-05-2026 00:15 9 94 0 0 235 0 1023,9
1 La Piedad 07-05-2026 00:00 9,1 94 0 0 235 0 1023,7